x

9449880 - Friday Harbor, Wa (frdw1) Weather Station

9:36pm - Sun 25th Sep 2016 All times are PDT. -7 hours from GMT.

  • Wind
  • Sea Temp 52°f
  • 空気 Temp 59°f
  • Sea Pressure 1025.7mb
  • 9449880 - Friday Harbor, Wa
  • 9449880 - Friday Harbor, Wa

More Historic Weather Station data

Upgrade to MSW Pro to gain access to the past 30 days of data for over 8000 Wavebouys and Weather Stations around the globe.

Join Pro

Comparision Forecast

View Surf forecast
   
Sun 09/25 9:36pm  -  5 mph 1025.7mb 52f 59f
9:30pm 2 7 mph 1025.6mb 52f 59f
9:24pm 1 7 mph 1025.7mb 52f 59f
9:18pm 2 7 mph 1025.7mb 52f 59f
9:12pm 1 7 mph 1025.8mb 52f 59f
9:06pm 2 8 mph 1025.9mb 52f 59f
9:00pm 2 6 mph 1026mb 52f 59f
8:36pm 3 7 mph 1026.1mb 52f 60f
8:30pm 3 10 mph 1026.1mb 52f 60f
8:24pm 2 6 mph 1026.1mb 52f 60f
8:18pm 2 7 mph 1026.2mb 52f 60f
8:12pm 3 9 mph 1026.2mb 52f 60f
8:06pm 2 9 mph 1026.2mb 52f 60f
8:00pm 2 7 mph 1026.2mb 52f 61f
7:36pm  -  5 mph 1026.4mb 52f 61f
7:30pm 2 5 mph 1026.3mb 52f 61f
7:24pm 2 8 mph 1026.5mb 52f 61f
7:18pm 2 6 mph 1026.5mb 52f 61f
7:12pm 2 6 mph 1026.6mb 52f 61f
7:06pm 2 5 mph 1026.6mb 52f 61f
7:00pm 2 6 mph 1026.6mb 52f 61f
6:36pm 1 3 mph 1026.9mb 52f 62f
6:30pm 1 6 mph 1027mb 52f 62f
6:24pm 2 5 mph 1027.1mb 52f 62f
6:18pm 3 7 mph 1027.1mb 52f 62f
6:12pm 1 5 mph 1027.2mb 52f 62f
6:06pm 1 6 mph 1027.2mb 51f 62f
6:00pm 1 5 mph 1027.4mb 51f 62f
5:36pm 2 6 mph 1027.7mb 51f 61f
5:30pm 2 8 mph 1027.9mb 51f 61f
5:24pm 3 7 mph 1027.9mb 51f 62f
5:18pm 3 6 mph 1027.9mb 51f 62f
5:12pm 5 8 mph 1028mb 51f 62f
5:06pm 3 8 mph 1028.1mb 51f 63f
5:00pm 2 7 mph 1028mb 51f 63f
4:36pm 2 6 mph 1028.2mb 51f 63f
4:30pm 2 6 mph 1028.3mb 51f 64f
4:24pm 3 6 mph 1028.3mb 51f 64f
4:18pm 3 6 mph 1028.3mb 51f 64f
4:12pm 2 6 mph 1028.3mb 51f 64f
4:06pm 2 5 mph 1028.4mb 51f 65f
4:00pm 2 5 mph 1028.4mb 51f 65f
3:36pm 3 6 mph 1028.7mb 51f 64f
3:30pm 5 6 mph 1028.9mb 51f 64f
3:24pm 5 7 mph 1029.1mb 51f 64f
3:18pm 5 6 mph 1029.1mb 51f 64f
3:12pm 3 6 mph 1029.1mb 51f 64f
3:06pm 5 6 mph 1029.2mb 51f 64f
3:00pm 2 6 mph 1029.3mb 51f 64f
2:36pm 3 6 mph 1029.4mb 51f 63f
2:30pm 2 6 mph 1029.4mb 51f 64f
2:24pm 3 6 mph 1029.4mb 51f 63f
2:18pm 2 5 mph 1029.5mb 51f 63f
2:12pm 3 6 mph 1029.7mb 51f 62f
2:06pm 3 6 mph 1029.8mb 51f 62f
2:00pm 2 5 mph 1029.8mb 51f 62f
1:36pm 5 8 mph 1029.9mb 51f 62f
1:30pm 3 6 mph 1030mb 51f 62f
1:24pm 3 5 mph 1030mb 51f 62f
1:18pm 3 5 mph 1030mb 51f 62f
1:12pm 5
mph
1029.9mb 51f 62f
1:06pm 5 6 mph 1029.9mb 51f 62f
1:00pm 5 6 mph 1029.9mb 51f 61f
12:36pm 5 7 mph 1030mb 51f 61f
12:30pm 6 8 mph 1030.1mb 51f 61f
12:24pm 5 8 mph 1030.2mb 51f 61f
12:18pm 6 7 mph 1030.3mb 51f 61f
12:12pm 5
mph
1030.3mb 51f 61f
12:06pm 3 5 mph 1030.3mb 51f 60f
12:00pm 1 5 mph 1030.3mb 51f 60f
11:36am 2 5 mph 1030.3mb 51f 60f
11:30am 3 5 mph 1030.2mb 51f 59f
11:24am 2 5 mph 1030.2mb 51f 60f
11:18am 2 3 mph 1030.2mb 51f 60f
11:12am 2 5 mph 1030.2mb 51f 59f
11:06am 1 3 mph 1030.3mb 51f 59f
11:00am  -  3 mph 1030.3mb 51f 59f
10:36am 3 6 mph 1030.3mb 52f 58f
10:30am 2 6 mph 1030.3mb 52f 58f
10:24am 5 6 mph 1030.2mb 52f 58f
10:18am 5 7 mph 1030.2mb 52f 58f
10:12am 5 6 mph 1030.2mb 52f 58f
10:06am 2
mph
1030.3mb 52f 57f
10:00am  -  2 mph 1030.4mb 52f 57f
9:36am 1 3 mph 1030.3mb 52f 56f
9:30am 2 5 mph 1030.2mb 52f 56f
9:24am 2 6 mph 1030.1mb 52f 56f
9:18am 2
mph
1030.2mb 52f 55f
9:12am  -  1 mph 1030.1mb 52f 55f
9:06am  -  mph 1030.1mb 52f 55f
9:00am  -  2 mph 1030.1mb 52f 54f
8:36am 2
mph
1030mb 52f 54f
8:30am  -  1 mph 1029.9mb 52f 54f
8:24am  -  2 mph 1029.8mb 52f 54f
8:18am 1 3 mph 1029.9mb 52f 53f
8:12am 2 3 mph 1029.9mb 52f 53f
8:06am 2 3 mph 1029.7mb 52f 53f
8:00am 1 2 mph 1029.7mb 52f 53f
7:36am  -  3 mph 1029.5mb 52f 53f
7:30am  -  1 mph 1029.5mb 52f 54f
7:24am  -  1 mph 1029.5mb 52f 53f
7:18am  -  1 mph 1029.4mb 52f 53f
7:12am 1 2 mph 1029.3mb 52f 53f
7:06am 1 3 mph 1029.4mb 52f 53f
7:00am 1 3 mph 1029.4mb 52f 53f
6:36am  -  1 mph 1029.2mb 52f 54f
6:30am  -  1 mph 1029.2mb 52f 54f
6:24am  -  2 mph 1029mb 52f 54f
6:18am 1 3 mph 1029mb 52f 54f
6:12am 3 6 mph 1029.1mb 52f 53f
6:06am 2 6 mph 1029.2mb 52f 53f
6:00am  -  1 mph 1029.2mb 52f 53f
5:36am  -  1 mph 1028.9mb 52f 54f
5:30am  -  1 mph 1029mb 52f 53f
5:24am 1 2 mph 1029mb 52f 53f
5:18am 1 2 mph 1029mb 52f 53f
5:12am 1 5 mph 1029.1mb 52f 53f
5:06am 3 5 mph 1029.1mb 52f 53f
5:00am  -  2 mph 1029mb 52f 54f
4:36am  -  1 mph 1029mb 52f 53f
4:30am 1 3 mph 1028.9mb 52f 53f
4:24am  -  1 mph 1028.8mb 52f 53f
4:18am 1 3 mph 1028.8mb 52f 53f
4:12am 2 3 mph 1029mb 52f 53f
4:06am 1 2 mph 1029mb 52f 53f
4:00am  -  mph 1028.9mb 52f 53f
3:36am  -  3 mph 1029mb 52f 53f
3:30am 3
mph
1028.9mb 52f 53f
3:24am  -  3 mph 1028.9mb 52f 53f
3:18am  -  1 mph 1029mb 52f 53f
3:12am  -  1 mph 1029mb 52f 53f
3:06am  -  2 mph 1029mb 52f 53f
3:00am  -  1 mph 1029mb 52f 53f
2:36am 1 2 mph 1029.2mb 52f 53f
2:30am  -  2 mph 1029.3mb 52f 53f
2:24am 1 2 mph 1029.3mb 52f 53f
2:18am 1 2 mph 1029.2mb 52f 53f
2:12am  -  1 mph 1029.2mb 52f 53f
2:06am  -  3 mph 1029.3mb 52f 53f
2:00am 1 2 mph 1029.3mb 52f 53f
1:36am  -  2 mph 1029.5mb 52f 54f
1:30am 1 2 mph 1029.5mb 52f 54f
1:24am  -  5 mph 1029.4mb 52f 53f
1:18am  -  2 mph 1029.4mb 52f 54f
1:12am 1 3 mph 1029.3mb 52f 53f
1:06am  -  3 mph 1029.2mb 52f 53f
1:00am 2
mph
1029.3mb 52f 53f
12:36am 2
mph
1029.3mb 52f 54f
12:30am 2 3 mph 1029.4mb 52f 55f
12:24am  -  2 mph 1029.5mb 52f 55f
12:18am 1 5 mph 1029.5mb 52f 55f
12:12am 2 3 mph 1029.5mb 52f 55f
12:06am 1 2 mph 1029.5mb 52f 56f
12:00am  -  2 mph 1029.6mb 52f 56f
Sat 09/24 11:36pm  -  3 mph 1029.4mb 52f 56f
11:30pm  -  7 mph 1029.5mb 52f 56f
11:24pm 2 6 mph 1029.4mb 52f 56f
11:18pm 2 6 mph 1029.4mb 52f 56f
11:12pm 2 6 mph 1029.3mb 52f 56f
11:06pm 3 7 mph 1029.2mb 52f 56f
11:00pm 1 6 mph 1029.2mb 52f 56f
10:36pm 2 6 mph 1029mb 52f 55f
10:30pm 1 3 mph 1029.1mb 52f 55f
10:24pm 1 2 mph 1029mb 52f 55f
10:18pm  -  2 mph 1029.1mb 52f 55f
10:12pm  -  3 mph 1029.1mb 52f 55f
10:06pm 2 5 mph 1029.1mb 52f 55f
10:00pm 1 5 mph 1029.1mb 52f 55f
9:54pm  -  2 mph 1029.1mb 52f 55f
9:48pm 2 5 mph 1029mb 52f 55f
9:36pm 1 3 mph 1028.9mb 52f 54f
9:30pm  -  2 mph 1028.9mb 52f 54f
9:24pm  -  2 mph 1028.8mb 52f 54f
9:18pm  -  2 mph 1028.9mb 52f 54f
9:12pm  -  2 mph 1028.7mb 52f 54f
9:06pm 2 5 mph 1028.9mb 52f 54f
9:00pm  -  2 mph 1028.7mb 52f 54f
8:54pm 1 2 mph 1028.7mb 52f 54f
8:48pm  -  2 mph 1028.6mb 52f 54f
8:36pm  -  2 mph 1028.7mb 52f 55f
8:30pm  -  2 mph 1028.6mb 52f 55f
8:24pm  -  3 mph 1028.4mb 52f 55f
8:18pm 1 5 mph 1028.4mb 52f 55f
8:12pm 2 5 mph 1028.4mb 52f 54f
8:06pm 1 3 mph 1028.3mb 52f 55f
8:00pm 2 7 mph 1028mb 52f 55f
7:54pm 6 7 mph 1027.7mb 52f 55f
7:48pm 2 3 mph 1028mb 52f 55f
7:36pm  -  1 mph 1027.7mb 52f 56f
7:30pm 1 3 mph 1027.7mb 52f 55f
7:24pm 5 6 mph 1027.9mb 52f 55f
7:18pm 3 6 mph 1027.5mb 52f 56f
7:12pm 1 3 mph 1027.4mb 52f 57f
7:06pm 1 3 mph 1027.4mb 52f 57f
7:00pm 3 5 mph 1027.4mb 52f 57f
6:54pm  -  mph 1027.4mb 52f 57f
6:48pm  -  1 mph 1027.4mb 52f 57f
6:36pm  -  mph 1027.6mb 52f 58f
6:30pm  -  1 mph 1027.5mb 52f 58f
6:24pm  -  1 mph 1027.6mb 52f 58f
6:18pm  -  1 mph 1027.7mb 52f 58f
6:12pm  -  2 mph 1027.6mb 52f 59f
6:06pm 1 2 mph 1027.6mb 52f 59f
6:00pm  -  2 mph 1027.7mb 52f 59f
5:54pm 1 2 mph 1027.5mb 52f 59f
5:48pm  -  1 mph 1027.6mb 52f 59f
5:36pm  -  1 mph 1027.6mb 52f 60f
5:30pm  -  1 mph 1027.6mb 52f 60f
5:24pm  -  1 mph 1027.4mb 52f 60f
5:18pm  -  3 mph 1027.5mb 52f 60f
5:12pm  -  2 mph 1027.7mb 52f 60f
5:06pm 2 5 mph 1027.7mb 52f 61f
5:00pm 3
mph
1027.6mb 52f 61f
4:54pm 3
mph
1027.7mb 52f 61f
4:48pm 3
mph
1027.6mb 52f 61f
4:36pm 1 2 mph 1027.8mb 52f 61f
4:30pm 2
mph
1027.7mb 52f 61f
4:24pm 2 3 mph 1027.8mb 52f 61f
4:18pm 2
mph
1027.7mb 52f 61f
4:12pm 1 2 mph 1027.7mb 52f 61f
4:06pm 2
mph
1027.5mb 52f 61f
4:00pm 2 3 mph 1027.9mb 51f 61f
3:36pm 3 5 mph 1027.7mb 51f 60f
3:30pm 5
mph
1027.8mb 51f 60f
3:24pm 3 5 mph 1027.8mb 51f 60f
3:18pm 3
mph
1027.7mb 51f 60f
3:12pm 2 3 mph 1027.8mb 51f 60f
3:06pm 3 5 mph 1027.9mb 51f 60f
3:00pm 3 5 mph 1028mb 51f 59f
2:54pm 3
mph
1028.1mb 51f 59f
2:48pm 3 5 mph 1028mb 51f 59f
2:36pm 2 3 mph 1028.2mb 51f 60f
2:30pm 2 3 mph 1028.2mb 51f 59f
2:24pm 3 6 mph 1028.2mb 51f 59f
2:18pm 6
mph
1028.3mb 51f 59f
2:12pm 5 6 mph 1028.1mb 51f 58f
2:06pm 5 6 mph 1028.4mb 51f 59f
2:00pm 5 6 mph 1028.8mb 51f 58f
1:54pm 5
mph
1028.6mb 51f 58f
1:48pm 5
mph
1028.7mb 51f 58f
1:36pm 3 5 mph 1029mb 51f 58f
1:30pm 3 6 mph 1029.2mb 51f 57f
1:24pm 2 5 mph 1029.3mb 51f 57f
1:18pm 3 5 mph 1029.3mb 51f 57f
1:12pm 2 5 mph 1029.2mb 51f 57f
1:06pm 3 6 mph 1029mb 51f 56f
1:00pm 3 6 mph 1028.8mb 51f 56f
12:54pm 5 6 mph 1028.7mb 51f 56f
12:48pm 3 5 mph 1028.7mb 51f 56f
12:36pm 2 3 mph 1029.1mb 51f 56f
12:30pm 1 2 mph 1029mb 51f 57f
12:24pm 2 3 mph 1029.4mb 51f 57f
12:18pm 2 3 mph 1029.3mb 51f 56f
12:12pm 2 5 mph 1029.3mb 51f 56f
12:06pm 2 3 mph 1029.5mb 51f 56f
12:00pm 2
mph
1029.6mb 51f 56f
11:54am 2
mph
1029.6mb 51f 56f
11:48am 2
mph
1029.6mb 51f 56f
11:36am 2
mph
1029.6mb 51f 56f
11:30am 2 3 mph 1029.5mb 51f 55f
11:24am 2 5 mph 1029.6mb 51f 55f
11:18am 2 3 mph 1029.7mb 51f 55f
11:12am 2 3 mph 1029.5mb 51f 55f
11:06am 2 3 mph 1029.4mb 51f 55f
11:00am 2
mph
1029.6mb 51f 55f
10:54am 2
mph
1029.5mb 51f 54f
10:48am 1
mph
1029.3mb 51f 55f
10:36am  -  1 mph 1029.2mb 51f 54f
10:30am 1 2 mph 1029mb 51f 53f
10:24am  -  mph 1029.4mb 51f 53f
10:18am  -  2 mph 1029.3mb 51f 53f
10:12am 2
mph
1029.2mb 51f 52f
10:06am 2
mph
1028.9mb 51f 52f
10:00am 3
mph
1028.7mb 51f 52f
9:54am 3 5 mph 1028.5mb 51f 51f
9:48am 3 5 mph 1028.5mb 51f 51f
9:36am 2 3 mph 1028.7mb 51f 51f
9:30am 2
mph
1028.7mb 51f 51f
9:24am 2 3 mph 1028.6mb 52f 51f
9:18am 3
mph
1028.2mb 52f 51f
9:12am 1 2 mph 1028.3mb 52f 51f
9:06am 1 2 mph 1028.3mb 52f 51f
9:00am 2
mph
1028.3mb 52f 51f
8:54am 2 3 mph 1028.3mb 52f 51f
8:48am 2
mph
1028.2mb 52f 51f
8:36am  -  mph 1028.1mb 52f 51f
8:30am  -  1 mph 1027.9mb 52f 51f
8:24am  -  1 mph 1028mb 52f 51f
8:18am  -  1 mph 1028.1mb 52f 51f
8:12am  -  1 mph 1028.1mb 52f 51f
8:06am 1
mph
1028.1mb 52f 51f
8:00am 1
mph
1028.1mb 52f 51f
7:54am  -  1 mph 1028mb 52f 51f
7:48am 1 2 mph 1027.9mb 52f 51f
7:36am 2 3 mph 1027.7mb 52f 51f
7:30am 1 2 mph 1027.5mb 52f 51f
7:24am 1 2 mph 1027.5mb 52f 51f
7:18am 1 2 mph 1027.4mb 52f 50f
7:12am  -  1 mph 1027.3mb 52f 50f
7:06am  -  2 mph 1027.2mb 52f 50f
7:00am 1 2 mph 1027.1mb 52f 50f
6:54am 1 2 mph 1027.1mb 52f 50f
6:48am  -  1 mph 1027.1mb 52f 50f
6:36am 1
mph
1027mb 52f 50f
6:30am  -  1 mph 1027mb 52f 50f
6:24am  -  mph 1026.9mb 52f 50f
6:18am  -  mph 1026.8mb 52f 50f
6:12am  -  2 mph 1026.6mb 52f 50f
6:06am 1 2 mph 1026.6mb 52f 50f
6:00am  -  1 mph 1026.5mb 52f 50f
5:54am  -  1 mph 1026.5mb 52f 48f
5:48am 1 5 mph 1026.4mb 52f 48f
5:36am  -  2 mph 1026.4mb 52f 49f
5:30am  -  3 mph 1026.3mb 52f 48f
5:24am  -  2 mph 1026.1mb 52f 50f
5:18am  -  2 mph 1025.9mb 52f 49f
5:12am  -  2 mph 1025.9mb 52f 48f
5:06am 1 2 mph 1025.9mb 52f 49f
5:00am  -  2 mph 1025.9mb 52f 49f
4:54am 1 2 mph 1025.9mb 52f 48f
4:48am 1 3 mph 1025.8mb 52f 48f
4:36am  -  2 mph 1025.7mb 52f 48f
4:30am 1 2 mph 1025.7mb 52f 48f
4:24am  -  mph 1025.7mb 52f 50f
4:18am  -  1 mph 1025.5mb 52f 49f
4:12am  -  2 mph 1025.4mb 52f 50f
4:06am  -  3 mph 1025.4mb 52f 48f
4:00am 3
mph
1025.4mb 52f 48f
3:54am 1 3 mph 1025.4mb 52f 48f
3:48am  -  1 mph 1025.2mb 52f 50f
3:36am 2 3 mph 1025.3mb 52f 49f
3:30am 2 3 mph 1025.2mb 52f 50f
3:24am 1 5 mph 1025.2mb 52f 49f
3:18am 5
mph
1025.1mb 52f 49f
3:12am  -  2 mph 1025mb 52f 50f
3:06am 2
mph
1024.9mb 52f 50f
3:00am  -  1 mph 1024.9mb 52f 51f
2:54am  -  1 mph 1025mb 52f 52f
2:48am  -  1 mph 1024.7mb 52f 51f
2:36am  -  mph 1024.5mb 52f 51f
2:30am  -  1 mph 1024.6mb 52f 51f
2:24am  -  2 mph 1024.5mb 52f 51f
2:18am 2
mph
1024.5mb 52f 51f
2:12am 1 2 mph 1024.6mb 52f 51f
2:06am  -  1 mph 1024.6mb 52f 52f
2:00am  -  1 mph 1024.6mb 52f 52f
1:54am  -  1 mph 1024.6mb 52f 52f
1:48am  -  1 mph 1024.3mb 52f 52f
1:36am  -  1 mph 1024mb 52f 52f
1:30am  -  mph 1023.9mb 52f 52f
1:24am  -  1 mph 1023.8mb 52f 53f
1:18am  -  1 mph 1023.8mb 52f 53f
1:12am  -  1 mph 1023.8mb 52f 53f
1:06am  -  1 mph 1023.8mb 52f 53f
1:00am  -  2 mph 1023.8mb 52f 53f
12:54am  -  2 mph 1023.7mb 52f 53f
12:48am 1 2 mph 1023.6mb 52f 54f
12:36am 2 3 mph 1023.3mb 52f 54f
12:30am  -  3 mph 1023.1mb 52f 54f
12:24am 2 5 mph 1023mb 52f 55f
12:18am 2 3 mph 1022.9mb 52f 55f
12:12am  -  1 mph 1022.8mb 52f 55f
12:06am  -  2 mph 1022.8mb 52f 55f
12:00am  -  5 mph 1022.7mb 52f 55f
Fri 09/23 11:54pm 1 5 mph 1022.7mb 52f 55f
11:48pm 2 3 mph 1022.9mb 52f 55f
11:36pm  -  5 mph 1022.7mb 52f 55f
11:30pm  -  2 mph 1022.5mb 52f 55f
11:24pm  -  2 mph 1022.3mb 52f 55f
11:18pm 1 2 mph 1022.1mb 52f 55f
11:12pm  -  5 mph 1022.1mb 52f 55f
11:06pm  -  2 mph 1022.1mb 52f 55f
11:00pm  -  2 mph 1022mb 52f 55f
10:54pm  -  3 mph 1022mb 52f 55f
10:48pm 1 2 mph 1022.1mb 52f 55f
10:36pm  -  2 mph 1021.8mb 52f 54f
10:30pm 1 2 mph 1021.7mb 52f 54f
10:24pm 1 2 mph 1021.6mb 52f 55f
10:18pm 2 5 mph 1021.5mb 52f 55f
10:12pm 1 6 mph 1021.4mb 52f 55f
10:06pm 2 6 mph 1021.5mb 52f 55f
10:00pm  -  3 mph 1021.2mb 52f 55f
9:54pm 2 3 mph 1021.1mb 52f 55f
9:48pm 2 5 mph 1021mb 52f 55f
9:36pm 5 7 mph 1020.9mb 52f 55f
9:30pm 6 7 mph 1020.8mb 52f 55f
9:24pm 7 10 mph 1020.8mb 52f 55f
9:18pm 9 10 mph 1020.7mb 52f 56f
9:12pm 8 9 mph 1020.6mb 52f 56f
9:06pm 3 6 mph 1020.5mb 52f 56f
9:00pm 3 6 mph 1020.4mb 52f 56f
8:54pm 1 5 mph 1020.2mb 52f 56f
8:48pm 1 2 mph 1020.1mb 52f 56f
8:36pm  -  1 mph 1019.7mb 52f 56f
8:30pm 1 2 mph 1019.6mb 52f 56f
8:24pm  -  1 mph 1019.5mb 52f 56f
8:18pm  -  1 mph 1019.4mb 52f 56f
8:12pm  -  1 mph 1019.1mb 52f 56f
8:06pm  -  1 mph 1019mb 52f 56f
8:00pm  -  1 mph 1019.1mb 52f 56f
7:54pm  -  mph 1018.7mb 52f 56f
7:48pm  -  mph 1018.6mb 52f 56f
7:36pm  -  1 mph 1018.5mb 52f 56f
7:30pm  -  1 mph 1018.6mb 52f 56f
7:24pm  -  2 mph 1018.4mb 52f 56f
7:18pm 1 2 mph 1018.4mb 52f 56f
7:12pm 1 2 mph 1018.3mb 52f 56f
7:06pm 1 3 mph 1018.3mb 52f 56f
7:00pm 2 3 mph 1018.1mb 52f 56f
6:54pm 2
mph
1018.1mb 52f 56f
6:48pm 2 3 mph 1018mb 52f 56f
6:36pm 2 3 mph 1017.7mb 52f 56f
6:30pm 1 2 mph 1017.6mb 52f 57f
6:24pm  -  3 mph 1017.6mb 52f 56f
6:18pm 2 5 mph 1017.3mb 52f 56f
6:12pm 5 6 mph 1017mb 52f 56f
6:06pm 3 5 mph 1017mb 52f 56f
6:00pm 3 6 mph 1017.1mb 52f 56f
5:54pm 2 6 mph 1017.1mb 52f 56f
5:48pm 3 7 mph 1016.9mb 52f 56f
5:36pm 6 7 mph 1016.7mb 52f 56f
5:30pm 5 7 mph 1016.7mb 52f 56f
5:24pm 3 6 mph 1016.7mb 52f 57f
5:18pm 5 7 mph 1016.7mb 52f 57f
5:12pm 5 8 mph 1016.6mb 52f 57f
5:06pm 6 8 mph 1016.7mb 52f 57f
5:00pm 5 6 mph 1016.7mb 52f 57f
4:54pm 3 6 mph 1016.6mb 52f 57f
4:48pm 2 5 mph 1016.7mb 52f 57f
4:36pm 5 8 mph 1016.5mb 52f 57f
4:30pm 6 8 mph 1016.3mb 52f 57f
4:24pm 6 7 mph 1016.3mb 52f 57f
4:18pm 6 8 mph 1016.2mb 52f 57f
4:12pm 7 9 mph 1016.2mb 52f 57f
4:06pm 7 11 mph 1016.2mb 52f 57f
4:00pm 7 11 mph 1016.1mb 52f 57f
3:54pm 7 10 mph 1016.1mb 52f 57f
3:48pm 6 9 mph 1015.9mb 52f 57f
3:36pm 6 8 mph 1015.7mb 52f 57f
3:30pm 6 10 mph 1015.5mb 52f 57f
3:24pm 8 13 mph 1015.5mb 52f 57f
3:18pm 6 11 mph 1015.4mb 52f 57f
3:12pm 8 10 mph 1015.3mb 52f 57f
3:06pm 6 15 mph 1015.2mb 52f 57f
3:00pm 11 16 mph 1015.2mb 52f 57f
2:36pm 8 18 mph 1014.9mb 51f 57f
2:30pm 9 17 mph 1014.8mb 51f 57f
2:24pm 8 15 mph 1014.8mb 51f 57f
2:18pm 10 15 mph 1014.8mb 51f 57f
2:12pm 8 17 mph 1014.8mb 51f 56f
2:06pm 14 17 mph 1014.6mb 51f 56f
2:00pm 11 17 mph 1014.7mb 51f 56f
1:54pm 11 16 mph 1014.7mb 51f 56f
1:48pm 11 17 mph 1014.6mb 51f 56f
1:36pm 14 20 mph 1014.6mb 51f 56f
1:30pm 9 20 mph 1014.6mb 51f 56f
1:24pm 9 16 mph 1014.6mb 51f 55f
1:18pm 10 20 mph 1014.4mb 51f 55f
1:12pm 13 18 mph 1014.5mb 51f 55f
1:06pm 10 21 mph 1014.6mb 51f 55f
1:00pm 11 17 mph 1014.6mb 51f 55f
12:54pm 13 21 mph 1014.6mb 51f 55f
12:48pm 11 28 mph 1014.6mb 51f 55f
12:36pm 9 18 mph 1014.7mb 51f 55f
12:30pm 9 20 mph 1014.5mb 51f 55f
12:24pm 13 18 mph 1014.5mb 51f 55f
12:18pm 10 18 mph 1014.4mb 51f 55f
12:12pm 8 15 mph 1014.2mb 51f 55f
12:06pm 11 21 mph 1014.3mb 51f 55f
12:00pm 13 22 mph 1014.1mb 51f 55f
11:54am 14 23 mph 1014mb 51f 55f
11:48am 16 25 mph 1014mb 51f 55f
11:36am 14 21 mph 1013.9mb 51f 56f
11:30am 14 21 mph 1014mb 51f 56f
11:24am 8 16 mph 1014mb 51f 55f
11:18am 9 18 mph 1014mb 51f 55f
11:12am 13 18 mph 1014mb 51f 55f
11:06am 13 18 mph 1014mb 51f 56f
11:00am 13 21 mph 1013.9mb 51f 56f
10:54am 9 16 mph 1013.8mb 51f 56f
10:48am 11 18 mph 1013.7mb 51f 56f
10:36am 9 20 mph 1013.6mb 51f 56f
10:30am 14 20 mph 1013.6mb 51f 56f
10:24am 11 20 mph 1013.5mb 51f 56f
10:18am 11 20 mph 1013.5mb 51f 56f
10:12am 14 20 mph 1013.5mb 51f 56f
10:06am 14 20 mph 1013.5mb 51f 56f
10:00am 14 18 mph 1013.5mb 51f 56f
9:54am 13 18 mph 1013.5mb 51f 56f
9:48am 13 22 mph 1013.6mb 51f 56f
9:36am 13 17 mph 1013.6mb 51f 56f
9:30am 13 18 mph 1013.6mb 51f 56f
9:24am 14 17 mph 1013.6mb 51f 55f
9:18am 14 20 mph 1013.7mb 51f 55f
9:12am 11 18 mph 1013.6mb 51f 55f
9:06am 13 17 mph 1013.9mb 51f 55f
9:00am 13 16 mph 1014mb 51f 55f
8:54am 13 18 mph 1014.1mb 51f 55f
8:48am 11 17 mph 1014.2mb 51f 55f
8:36am 9 14 mph 1014.2mb 51f 54f
8:30am 9 13 mph 1014.2mb 51f 54f
8:24am 7 9 mph 1014.3mb 51f 54f
8:18am 3 6 mph 1014.4mb 51f 53f
8:12am 5 8 mph 1014.4mb 51f 53f
8:06am 3 5 mph 1014.5mb 51f 53f
8:00am 5 6 mph 1014.6mb 51f 53f
7:54am 3 5 mph 1014.8mb 52f 52f
7:48am 2 5 mph 1014.9mb 52f 52f
7:36am 3 6 mph 1015mb 52f 52f
7:30am 5 6 mph - - 52f
7:24am 5 6 mph 1014.9mb 52f 52f
7:18am 3 5 mph 1014.9mb 52f 52f
7:12am 5 9 mph 1014.9mb 52f 52f
7:06am 7 9 mph - - 52f
7:00am 8 9 mph 1015.3mb 52f 52f
6:36am  -  mph 1015.8mb 52f -
6:30am  -  mph 1015.9mb 52f -
6:24am  -  mph 1015.9mb 52f -
6:18am  -  mph 1016mb 52f -
6:12am  -  mph 1016.1mb 52f -
6:06am  -  mph 1016.2mb 52f -
6:00am  -  mph 1016.3mb 52f -
5:54am  -  mph 1016.3mb 52f -
5:48am  -  mph 1016.3mb 52f -
5:36am  -  mph 1016.5mb 52f -
5:30am  -  mph 1016.5mb 52f -
5:24am  -  mph 1016.5mb 52f -
5:18am  -  mph 1016.5mb 52f -
5:12am  -  mph 1016.5mb 52f -
5:06am  -  mph 1016.5mb 52f -
5:00am  -  mph 1016.6mb 52f -
4:54am  -  mph 1016.6mb 52f -
4:48am  -  mph 1016.7mb 52f -
4:36am 2 3 mph 1016.8mb 52f 53f
4:30am 3 6 mph 1017mb 52f 53f
4:24am 5 6 mph 1017mb 52f 53f
4:18am 5 6 mph 1017mb 52f 54f
4:12am 3 5 mph 1016.8mb 52f 54f
4:06am 2 5 mph 1016.9mb 52f 53f
4:00am 2 5 mph 1016.9mb 52f 53f
3:54am 3 6 mph 1016.8mb 52f 53f
3:48am 3 7 mph 1016.7mb 52f 53f
3:36am 2 5 mph 1017mb 52f 53f
3:30am 3 6 mph 1017mb 52f 53f
3:24am 3 5 mph 1017.1mb 52f 53f
3:18am 5 6 mph 1017.1mb 52f 53f
3:12am 3 8 mph 1017mb 52f 53f
3:06am 5 6 mph 1017.1mb 52f 54f
3:00am 5 6 mph 1017.2mb 52f 54f
2:54am 3 5 mph 1017.2mb 52f 54f
2:48am 2 5 mph 1017.1mb 52f 54f
2:36am 3 5 mph 1017mb 52f 54f
2:30am 2 6 mph 1017.1mb 52f 54f
2:24am 5 7 mph 1017mb 52f 54f
2:18am 5 6 mph 1017mb 52f 54f
2:12am 5 7 mph 1017mb 52f 54f
2:06am 3 6 mph 1017mb 52f 54f
2:00am 5 6 mph 1017mb 52f 54f
1:54am 3 6 mph 1017.1mb 52f 54f
1:48am 3
mph
1017.1mb 52f 54f
1:36am  -  mph 1017.1mb 52f -
1:30am  -  mph 1017mb 52f -
1:24am  -  mph 1017mb 52f -
1:18am  -  mph 1017mb 52f -
1:12am  -  mph 1017mb 52f -
1:06am  -  mph 1017.2mb 52f -
1:00am  -  mph 1017.3mb 52f -
12:48am  -  mph 1017.2mb 52f -
12:36am  -  mph 1017.1mb 52f -
12:30am  -  mph 1017mb 52f -
12:24am  -  mph 1017mb 52f -
12:18am  -  mph 1016.9mb 52f -
12:12am  -  mph 1016.9mb 52f -
12:06am  -  mph 1017mb 52f -
12:00am  -  mph 1017.1mb 52f -
Thu 09/22 11:54pm  -  mph 1017.1mb 52f -
11:48pm  -  mph 1017.1mb 52f -
11:36pm  -  mph 1017.1mb 52f -
11:24pm  -  mph 1017mb 52f -
11:18pm  -  mph 1017mb 52f -
11:12pm  -  mph 1016.7mb 52f -
11:06pm  -  mph 1016.6mb 52f -
11:00pm  -  mph 1016.5mb 52f -
10:54pm  -  mph 1016.6mb 52f -
10:48pm  -  mph 1016.5mb 52f -
10:36pm 3 6 mph 1016.5mb 52f 53f
10:30pm 5 8 mph 1016.5mb 52f 53f
10:24pm 3 5 mph 1016.4mb 52f 54f
10:18pm 3 6 mph 1016.3mb 52f 54f
10:12pm 5 7 mph 1016.5mb 52f 54f
10:06pm 6 7 mph 1016.6mb 52f 54f
10:00pm 6 7 mph 1016.7mb 52f 54f
9:36pm  -  3 mph 1016.9mb 52f 55f
9:30pm 2 5 mph 1016.7mb 52f 55f
9:24pm 2 5 mph 1016.4mb 52f 55f
9:18pm 2 7 mph 1016.4mb 52f 55f
9:12pm 3 7 mph 1016.3mb 52f 55f
9:06pm 6 10 mph 1016.4mb 52f 55f
9:00pm 9 18 mph 1016.4mb 52f 55f
8:54pm 10 21 mph 1016.4mb 52f 55f
8:48pm 14 21 mph 1016.5mb 52f 55f
8:36pm 16 20 mph 1016.6mb 52f 55f
8:30pm 16 20 mph 1016.6mb 52f 55f
8:24pm 18 21 mph 1016.5mb 52f 56f
8:18pm 16 20 mph 1016.4mb 52f 56f
8:12pm 14 15 mph 1016.3mb 52f 56f
8:06pm 14 15 mph - - 56f
8:00pm 14 16 mph 1016.3mb 52f 56f
7:54pm 14 16 mph 1016.4mb 52f 56f
7:48pm 14 17 mph 1016.4mb 52f 56f
7:30pm  -  mph 1016.4mb 52f -
7:24pm  -  mph 1016.5mb 52f -
7:18pm  -  mph 1016.5mb 52f -
7:12pm  -  mph 1016.6mb 52f -
7:06pm  -  mph 1016.7mb 52f -
7:00pm  -  mph 1016.6mb 52f -
6:54pm  -  mph 1016.6mb 52f -
6:48pm  -  mph 1016.6mb 52f -
6:36pm  -  mph 1016.7mb 52f -
6:30pm  -  mph 1016.8mb 52f -
6:24pm  -  mph 1016.8mb 52f -
6:18pm  -  mph 1016.9mb 52f -
6:12pm  -  mph 1016.8mb 52f -
6:06pm  -  mph 1016.8mb 52f -
6:00pm  -  mph 1016.8mb 52f -
5:54pm  -  mph 1016.9mb 52f -
5:36pm  -  mph 1016.8mb 52f -
5:30pm  -  mph 1016.8mb 52f -
5:24pm  -  mph 1016.8mb 52f -
5:18pm  -  mph 1016.7mb 52f -
5:12pm  -  mph 1016.8mb 52f -
5:06pm  -  mph 1016.7mb 52f -
5:00pm  -  mph 1016.8mb 52f -
4:54pm  -  mph 1016.8mb 52f -
4:48pm  -  mph 1016.9mb 52f -
4:36pm 5 10 mph 1017mb 52f 60f
4:30pm 7 9 mph 1017mb 52f 59f
4:24pm 7 10 mph 1017mb 52f 60f
4:18pm 8 10 mph 1017mb 52f 60f
4:12pm 5 7 mph 1016.9mb 52f 60f
4:06pm 5 8 mph 1016.9mb 52f 60f
4:00pm 5 9 mph 1016.9mb 52f 60f
3:54pm 6 7 mph 1016.9mb 52f 60f
3:48pm 6 8 mph 1016.9mb 52f 60f
3:36pm 6 8 mph 1017mb 52f 59f
3:30pm 6 8 mph 1017mb 52f 59f
3:24pm 8 9 mph 1017mb 52f 59f
3:18pm 6 8 mph 1017mb 52f 59f
3:12pm 6 9 mph 1017.1mb 52f 58f
3:06pm 9 14 mph 1017.1mb 52f 58f
3:00pm 13 14 mph 1017.2mb 52f 58f
2:54pm 11 16 mph 1017.3mb 52f 57f
2:48pm 14 17 mph 1017.3mb 52f 58f
2:36pm 9 11 mph 1017.2mb 52f 60f
2:30pm 9 13 mph 1017.2mb 52f 59f
2:24pm 8 11 mph 1017.3mb 52f 59f
2:18pm 9 10 mph 1017.3mb 52f 58f
2:12pm 8 11 mph 1017.3mb 52f 58f
2:06pm 11 13 mph 1017.3mb 52f 58f
2:00pm 7 9 mph 1017.2mb 52f 59f
1:54pm 6 9 mph 1017.1mb 52f 59f
1:48pm 5 7 mph 1017.1mb 52f 59f
1:36pm 6 9 mph 1017.1mb 52f 58f
1:30pm 6 9 mph 1017.1mb 52f 58f
1:24pm 6 9 mph 1017.2mb 52f 58f
1:18pm 5 7 mph 1017.2mb 52f 58f
1:12pm 7 8 mph 1017.2mb 52f 58f
1:06pm 6 8 mph 1017.2mb 52f 58f
1:00pm 5 6 mph 1017.1mb 51f 58f
12:36pm 5 6 mph 1017.1mb 51f 57f
12:30pm 3 6 mph 1017.1mb 51f 57f
12:24pm 5 7 mph 1017.1mb 51f 56f
12:18pm 6 9 mph 1017.1mb 51f 56f
12:12pm 7 9 mph 1017.1mb 51f 55f
12:06pm 8 9 mph 1017mb 51f 56f
12:00pm 5 7 mph 1017mb 51f 57f
11:54am 5 6 mph 1016.9mb 51f 57f
11:48am 5 6 mph 1016.9mb 51f 57f
11:36am 2 3 mph 1017mb 51f 58f
11:30am 2 3 mph 1017.1mb 51f 57f
11:24am 1 2 mph 1017.1mb 51f 57f
11:18am 2 3 mph 1017mb 51f 56f
11:12am 1 2 mph 1017mb 51f 57f
11:06am 2
mph
1017.1mb 51f 56f
11:00am 2 3 mph 1017.1mb 51f 56f
10:54am 2 3 mph 1017.1mb 51f 55f
10:48am 2 3 mph 1017.1mb 51f 55f
10:36am 2
mph
1017.1mb 51f 55f
10:30am 2
mph
1017.2mb 51f 55f
10:24am 2 3 mph 1017.1mb 51f 53f
10:18am 2 3 mph 1017.1mb 51f 53f
10:12am 2 3 mph 1017.1mb 51f 53f
10:06am 2 3 mph 1017.1mb 51f 53f
10:00am 1
mph
1017.1mb 51f 54f
9:54am  -  2 mph 1017.1mb 51f 54f
9:48am 1 3 mph 1017mb 51f 53f
9:36am 1 2 mph 1016.9mb 51f 53f
9:30am 1 2 mph 1016.9mb 51f 53f
9:24am 1 2 mph 1016.9mb 51f 53f
9:18am 1
mph
1016.9mb 51f 53f
9:12am 1 2 mph 1016.9mb 51f 52f
9:06am 1 2 mph 1016.8mb 51f 52f
9:00am 1 2 mph 1016.8mb 51f 51f
8:54am  -  1 mph 1016.8mb 51f 51f
8:48am 1 2 mph 1016.8mb 51f 50f
8:36am  -  1 mph 1016.6mb 51f 50f
8:30am  -  1 mph 1016.7mb 51f 50f
8:24am  -  1 mph 1016.6mb 51f 50f
8:18am 2
mph
1016.4mb 51f 49f
8:12am 2
mph
1016.4mb 51f 49f
8:06am 1 3 mph 1016.3mb 51f 48f
8:00am  -  2 mph 1016.3mb 51f 47f
7:54am 2 3 mph 1016.2mb 51f 47f
7:48am 3
mph
1016.2mb 51f 47f
7:36am 3 5 mph 1016.2mb 51f 46f
7:30am 3
mph
1016.1mb 51f 46f
7:24am 3 5 mph 1016mb 51f 47f
7:18am 3 5 mph 1015.9mb 51f 47f
7:12am 3
mph
1015.9mb 51f 47f
7:06am 2 5 mph 1015.8mb 51f 48f
7:00am 3
mph
1015.8mb 51f 47f
6:54am 3
mph
1015.7mb 51f 48f
6:36am  -  1 mph 1015.6mb 51f 48f
6:30am 1 2 mph 1015.6mb 51f 47f
6:24am 2
mph
1015.5mb 51f 47f
6:18am 2
mph
1015.5mb 51f 47f
6:12am 2
mph
1015.4mb 51f 47f
6:06am 2
mph
1015.3mb 51f 47f
6:00am  -  1 mph 1015.3mb 51f 48f